Location: Newark
(48.5667°N, 7.8167°E)
Time: 05:49:57
(UTC+00:00)

ISS - Pass Details

Date: 20 September 2021
Orbit: 417 x 423 km, 51.6° (Epoch: 18 October)

Event Time Altitude Azimuth Distance (km) Brightness Sun altitude
Rises 18:48:03 0° 244° (WSW) 2,356 0.8 -13.4°
Reaches altitude 10° 18:50:09 10° 244° (WSW) 1,496 -0.3 -13.8°
Maximum altitude 18:53:30 82° 157° (SSE) 428 -3.9 -14.3°
Enters shadow 18:55:20 25° 71° (ENE) 895 -2.5 -14.6°
